Time,TemperatureF,DewpointF,PressureIn,WindDirection,WindDirectionDegrees,WindSpeedMPH,WindSpeedGustMPH,Humidity,HourlyPrecipIn,Conditions,Clouds,dailyrainin,SoftwareType,DateUTC
2013-01-09 00:03:00,16.9,14.2,25.69,North,0,0.0,0.0,89,0.00,,---,0.00,VWS V13.01,2013-01-09 07:03:00,
2013-01-09 00:08:00,16.7,14.0,25.69,North,0,0.0,0.0,89,0.00,,---,0.00,VWS V13.01,2013-01-09 07:08:00,
2013-01-09 00:13:00,16.7,14.0,25.69,North,0,0.0,0.0,89,0.00,,---,0.00,VWS V13.01,2013-01-09 07:13:00,
2013-01-09 00:18:00,16.9,14.2,25.69,North,0,0.0,0.0,89,0.00,,---,0.00,VWS V13.01,2013-01-09 07:18:00,
2013-01-09 00:23:00,16.9,14.2,25.69,North,0,0.0,0.0,89,0.00,,---,0.00,VWS V13.01,2013-01-09 07:23:00,
2013-01-09 00:28:00,17.1,14.1,25.69,North,0,0.0,0.0,88,0.00,,---,0.00,VWS V13.01,2013-01-09 07:28:00,
2013-01-09 00:33:00,17.1,14.1,25.69,North,0,0.0,0.0,88,0.00,,---,0.00,VWS V13.01,2013-01-09 07:33:00,
2013-01-09 00:38:00,17.2,14.3,25.69,North,0,0.0,0.0,88,0.00,,---,0.00,VWS V13.01,2013-01-09 07:38:00,
2013-01-09 00:43:00,17.1,14.1,25.69,North,0,0.0,0.0,88,0.00,,---,0.00,VWS V13.01,2013-01-09 07:43:00,
2013-01-09 00:48:00,17.8,14.8,25.69,North,0,0.0,0.0,88,0.00,,---,0.00,VWS V13.01,2013-01-09 07:48:00,
2013-01-09 00:53:00,18.1,15.4,25.69,North,0,0.0,0.0,89,0.00,,---,0.00,VWS V13.01,2013-01-09 07:53:00,
2013-01-09 00:58:00,18.0,15.3,25.69,North,0,0.0,0.0,89,0.00,,---,0.00,VWS V13.01,2013-01-09 07:58:00,
2013-01-09 01:03:00,17.4,14.7,25.69,North,0,0.0,0.0,89,0.00,,---,0.00,VWS V13.01,2013-01-09 08:03:00,
2013-01-09 01:08:00,17.4,14.7,25.69,North,0,0.0,0.0,89,0.00,,---,0.00,VWS V13.01,2013-01-09 08:08:00,
2013-01-09 01:13:00,17.2,14.6,25.69,North,0,0.0,0.0,89,0.00,,---,0.00,VWS V13.01,2013-01-09 08:13:00,
2013-01-09 01:18:00,16.9,13.9,25.69,North,0,0.0,0.0,88,0.00,,---,0.00,VWS V13.01,2013-01-09 08:18:00,
2013-01-09 01:23:00,16.7,13.8,25.69,North,0,0.0,0.0,88,0.00,,---,0.00,VWS V13.01,2013-01-09 08:23:00,
2013-01-09 01:28:00,16.5,13.6,25.69,North,0,0.0,0.0,88,0.00,,---,0.00,VWS V13.01,2013-01-09 08:28:00,
2013-01-09 01:33:00,16.5,13.3,25.69,North,0,0.0,0.0,87,0.00,,---,0.00,VWS V13.01,2013-01-09 08:33:00,
2013-01-09 01:38:00,16.7,13.5,25.69,North,0,0.0,0.0,87,0.00,,---,0.00,VWS V13.01,2013-01-09 08:38:00,
2013-01-09 01:43:00,16.5,13.3,25.69,North,0,0.0,0.0,87,0.00,,---,0.00,VWS V13.01,2013-01-09 08:43:00,
2013-01-09 01:48:00,16.0,12.8,25.69,North,0,0.0,0.0,87,0.00,,---,0.00,VWS V13.01,2013-01-09 08:48:00,
2013-01-09 01:53:00,16.0,12.5,25.69,North,0,0.0,0.0,86,0.00,,---,0.00,VWS V13.01,2013-01-09 08:53:00,
2013-01-09 01:58:00,16.0,12.5,25.69,North,0,0.0,0.0,86,0.00,,---,0.00,VWS V13.01,2013-01-09 08:58:00,
2013-01-09 02:03:00,15.8,12.6,25.69,North,0,0.0,0.0,87,0.00,,---,0.00,VWS V13.01,2013-01-09 09:03:00,
2013-01-09 02:08:00,15.6,12.2,25.69,North,0,0.0,0.0,86,0.00,,---,0.00,VWS V13.01,2013-01-09 09:08:00,
2013-01-09 02:13:00,15.4,12.0,25.69,North,0,0.0,0.0,86,0.00,,---,0.00,VWS V13.01,2013-01-09 09:13:00,
2013-01-09 02:18:00,15.6,12.2,25.69,North,0,0.0,0.0,86,0.00,,---,0.00,VWS V13.01,2013-01-09 09:18:00,
2013-01-09 02:23:00,15.8,12.4,25.69,North,0,0.0,0.0,86,0.00,,---,0.00,VWS V13.01,2013-01-09 09:23:00,
2013-01-09 02:28:00,15.8,12.4,25.69,North,0,0.0,0.0,86,0.00,,---,0.00,VWS V13.01,2013-01-09 09:28:00,
2013-01-09 02:33:00,15.8,12.4,25.66,North,0,0.0,0.0,86,0.00,,---,0.00,VWS V13.01,2013-01-09 09:33:00,
2013-01-09 02:38:00,16.2,12.7,25.66,North,0,0.0,0.0,86,0.00,,---,0.00,VWS V13.01,2013-01-09 09:38:00,
2013-01-09 02:43:00,16.9,13.4,25.66,North,0,0.0,0.0,86,0.00,,---,0.00,VWS V13.01,2013-01-09 09:43:00,
2013-01-09 02:48:00,17.8,14.6,25.66,North,0,0.0,0.0,87,0.00,,---,0.00,VWS V13.01,2013-01-09 09:48:00,
2013-01-09 02:53:00,18.5,15.3,25.69,North,0,0.0,0.0,87,0.00,,---,0.00,VWS V13.01,2013-01-09 09:53:00,
2013-01-09 02:58:00,19.9,17.0,25.69,North,0,0.0,0.0,88,0.00,,---,0.00,VWS V13.01,2013-01-09 09:58:00,
2013-01-09 03:03:00,20.3,17.1,25.69,North,0,0.0,0.0,87,0.00,,---,0.00,VWS V13.01,2013-01-09 10:03:00,
2013-01-09 03:08:00,20.8,17.3,25.69,North,0,0.0,0.0,86,0.00,,---,0.00,VWS V13.01,2013-01-09 10:08:00,
2013-01-09 03:13:00,21.2,17.4,25.69,North,0,0.0,0.0,85,0.00,,---,0.00,VWS V13.01,2013-01-09 10:13:00,
2013-01-09 03:18:00,21.2,16.9,25.66,North,0,0.0,0.0,83,0.00,,---,0.00,VWS V13.01,2013-01-09 10:18:00,
2013-01-09 03:23:00,21.0,16.4,25.66,North,0,0.0,0.0,82,0.00,,---,0.00,VWS V13.01,2013-01-09 10:23:00,
2013-01-09 03:28:00,20.7,15.8,25.66,North,0,0.0,0.0,81,0.00,,---,0.00,VWS V13.01,2013-01-09 10:28:00,
2013-01-09 03:33:00,20.3,15.1,25.66,North,0,0.0,0.0,80,0.00,,---,0.00,VWS V13.01,2013-01-09 10:33:00,
2013-01-09 03:38:00,19.9,14.8,25.66,North,0,0.0,0.0,80,0.00,,---,0.00,VWS V13.01,2013-01-09 10:38:00,
2013-01-09 03:43:00,19.8,14.6,25.66,North,0,0.0,0.0,80,0.00,,---,0.00,VWS V13.01,2013-01-09 10:43:00,
2013-01-09 03:48:00,19.6,14.4,25.66,North,0,0.0,0.0,80,0.00,,---,0.00,VWS V13.01,2013-01-09 10:48:00,
2013-01-09 03:53:00,19.9,15.1,25.66,North,0,0.0,0.0,81,0.00,,---,0.00,VWS V13.01,2013-01-09 10:53:00,
2013-01-09 03:58:00,20.3,15.4,25.66,North,0,0.0,0.0,81,0.00,,---,0.00,VWS V13.01,2013-01-09 10:58:00,
2013-01-09 04:03:00,20.3,15.4,25.66,North,0,0.0,0.0,81,0.00,,---,0.00,VWS V13.01,2013-01-09 11:03:00,
2013-01-09 04:08:00,20.3,15.4,25.66,North,0,0.0,0.0,81,0.00,,---,0.00,VWS V13.01,2013-01-09 11:08:00,
2013-01-09 04:13:00,20.5,15.3,25.66,North,0,0.0,0.0,80,0.00,,---,0.00,VWS V13.01,2013-01-09 11:13:00,
2013-01-09 04:18:00,20.3,15.1,25.66,North,0,0.0,0.0,80,0.00,,---,0.00,VWS V13.01,2013-01-09 11:18:00,
2013-01-09 04:23:00,20.3,15.1,25.66,North,0,0.0,0.0,80,0.00,,---,0.00,VWS V13.01,2013-01-09 11:23:00,
2013-01-09 04:28:00,20.5,15.3,25.66,North,0,0.0,0.0,80,0.00,,---,0.00,VWS V13.01,2013-01-09 11:28:00,
2013-01-09 04:33:00,20.8,15.7,25.66,North,0,0.0,0.0,80,0.00,,---,0.00,VWS V13.01,2013-01-09 11:33:00,
2013-01-09 04:38:00,21.2,16.0,25.66,North,0,0.0,0.0,80,0.00,,---,0.00,VWS V13.01,2013-01-09 11:38:00,
2013-01-09 04:43:00,21.0,15.5,25.66,North,0,0.0,0.0,79,0.00,,---,0.00,VWS V13.01,2013-01-09 11:43:00,
2013-01-09 04:48:00,21.2,15.7,25.66,North,0,0.0,0.0,79,0.00,,---,0.00,VWS V13.01,2013-01-09 11:48:00,
2013-01-09 04:53:00,21.2,15.7,25.66,North,0,0.0,0.0,79,0.00,,---,0.00,VWS V13.01,2013-01-09 11:53:00,
2013-01-09 04:58:00,20.8,15.4,25.66,North,0,0.0,0.0,79,0.00,,---,0.00,VWS V13.01,2013-01-09 11:58:00,
2013-01-09 05:03:00,20.8,15.4,25.66,North,0,0.0,0.0,79,0.00,,---,0.00,VWS V13.01,2013-01-09 12:03:00,
2013-01-09 05:08:00,20.3,14.6,25.66,North,0,0.0,0.0,78,0.00,,---,0.00,VWS V13.01,2013-01-09 12:08:00,
2013-01-09 05:13:00,20.1,14.4,25.66,North,0,0.0,0.0,78,0.00,,---,0.00,VWS V13.01,2013-01-09 12:13:00,
2013-01-09 05:18:00,19.9,14.2,25.66,North,0,0.0,0.0,78,0.00,,---,0.00,VWS V13.01,2013-01-09 12:18:00,
2013-01-09 05:23:00,20.1,14.4,25.66,North,0,0.0,0.0,78,0.00,,---,0.00,VWS V13.01,2013-01-09 12:23:00,
2013-01-09 05:28:00,20.1,14.4,25.66,North,0,0.0,0.0,78,0.00,,---,0.00,VWS V13.01,2013-01-09 12:28:00,
2013-01-09 05:33:00,20.5,15.0,25.66,North,0,0.0,0.0,79,0.00,,---,0.00,VWS V13.01,2013-01-09 12:33:00,
2013-01-09 05:38:00,20.3,14.6,25.66,North,0,0.0,0.0,78,0.00,,---,0.00,VWS V13.01,2013-01-09 12:38:00,
2013-01-09 05:43:00,20.3,14.3,25.66,North,0,0.0,0.0,77,0.00,,---,0.00,VWS V13.01,2013-01-09 12:43:00,
2013-01-09 05:48:00,20.7,14.6,25.66,North,0,0.0,0.0,77,0.00,,---,0.00,VWS V13.01,2013-01-09 12:48:00,
2013-01-09 05:53:00,21.2,15.1,25.66,North,0,0.0,0.0,77,0.00,,---,0.00,VWS V13.01,2013-01-09 12:53:00,
2013-01-09 05:58:00,21.9,15.5,25.66,North,0,0.0,0.0,76,0.00,,---,0.00,VWS V13.01,2013-01-09 12:58:00,
2013-01-09 06:03:00,22.3,15.3,25.66,North,0,0.0,0.0,74,0.00,,---,0.00,VWS V13.01,2013-01-09 13:03:00,
2013-01-09 06:08:00,22.1,14.5,25.66,North,0,0.0,0.0,72,0.00,,---,0.00,VWS V13.01,2013-01-09 13:08:00,
2013-01-09 06:13:00,22.5,14.8,25.66,North,0,0.0,0.0,72,0.00,,---,0.00,VWS V13.01,2013-01-09 13:13:00,
2013-01-09 06:18:00,22.5,14.5,25.66,North,0,0.0,0.0,71,0.00,,---,0.00,VWS V13.01,2013-01-09 13:18:00,
2013-01-09 06:23:00,22.5,14.2,25.66,North,0,0.0,0.0,70,0.00,,---,0.00,VWS V13.01,2013-01-09 13:23:00,
2013-01-09 06:28:00,21.9,13.6,25.66,North,0,0.0,0.0,70,0.00,,---,0.00,VWS V13.01,2013-01-09 13:28:00,
2013-01-09 06:33:00,21.6,13.3,25.66,North,0,0.0,0.0,70,0.00,,---,0.00,VWS V13.01,2013-01-09 13:33:00,
2013-01-09 06:38:00,21.2,13.0,25.66,North,0,0.0,0.0,70,0.00,,---,0.00,VWS V13.01,2013-01-09 13:38:00,
2013-01-09 06:43:00,20.7,12.8,25.66,North,0,0.0,0.0,71,0.00,,---,0.00,VWS V13.01,2013-01-09 13:43:00,
2013-01-09 06:48:00,20.7,13.4,25.66,North,0,0.0,0.0,73,0.00,,---,0.00,VWS V13.01,2013-01-09 13:48:00,
2013-01-09 06:53:00,20.5,13.2,25.66,North,0,0.0,0.0,73,0.00,,---,0.00,VWS V13.01,2013-01-09 13:53:00,
2013-01-09 06:58:00,20.5,13.5,25.66,North,0,0.0,0.0,74,0.00,,---,0.00,VWS V13.01,2013-01-09 13:58:00,
2013-01-09 07:03:00,20.3,13.4,25.66,North,0,0.0,0.0,74,0.00,,---,0.00,VWS V13.01,2013-01-09 14:03:00,
2013-01-09 07:08:00,20.1,13.2,25.66,North,0,0.0,0.0,74,0.00,,---,0.00,VWS V13.01,2013-01-09 14:08:00,
2013-01-09 07:13:00,19.9,13.3,25.66,North,0,0.0,0.0,75,0.00,,---,0.00,VWS V13.01,2013-01-09 14:13:00,
2013-01-09 07:18:00,19.9,13.3,25.66,North,0,0.0,0.0,75,0.00,,---,0.00,VWS V13.01,2013-01-09 14:18:00,
2013-01-09 07:23:00,19.9,13.6,25.66,North,0,0.0,0.0,76,0.00,,---,0.00,VWS V13.01,2013-01-09 14:23:00,
2013-01-09 07:28:00,20.1,14.1,25.66,North,0,0.0,0.0,77,0.00,,---,0.00,VWS V13.01,2013-01-09 14:28:00,
2013-01-09 07:33:00,20.5,14.7,25.66,North,0,0.0,0.0,78,0.00,,---,0.00,VWS V13.01,2013-01-09 14:33:00,
2013-01-09 07:38:00,20.8,15.1,25.69,North,0,0.0,0.0,78,0.00,,---,0.00,VWS V13.01,2013-01-09 14:38:00,
2013-01-09 07:43:00,21.0,15.2,25.69,North,0,0.0,0.0,78,0.00,,---,0.00,VWS V13.01,2013-01-09 14:43:00,
2013-01-09 07:48:00,21.2,15.4,25.69,North,0,0.0,0.0,78,0.00,,---,0.00,VWS V13.01,2013-01-09 14:48:00,
2013-01-09 07:53:00,21.7,15.9,25.69,North,0,0.0,0.0,78,0.00,,---,0.00,VWS V13.01,2013-01-09 14:53:00,
2013-01-09 07:58:00,22.6,17.1,25.69,North,0,0.0,0.0,79,0.00,,---,0.00,VWS V13.01,2013-01-09 14:58:00,
2013-01-09 08:03:00,23.7,18.2,25.69,North,0,0.0,0.0,79,0.00,,---,0.00,VWS V13.01,2013-01-09 15:03:00,
2013-01-09 08:08:00,24.8,18.9,25.69,North,0,0.0,0.0,78,0.00,,---,0.00,VWS V13.01,2013-01-09 15:08:00,
2013-01-09 08:13:00,26.2,19.4,25.69,North,0,0.0,0.0,75,0.00,,---,0.00,VWS V13.01,2013-01-09 15:13:00,
2013-01-09 08:18:00,25.5,15.8,25.69,North,0,0.0,0.0,66,0.00,,---,0.00,VWS V13.01,2013-01-09 15:18:00,
2013-01-09 08:23:00,25.0,14.5,25.69,North,0,0.0,0.0,64,0.00,,---,0.00,VWS V13.01,2013-01-09 15:23:00,
2013-01-09 08:28:00,26.4,17.3,25.69,North,0,0.0,0.0,68,0.00,,---,0.00,VWS V13.01,2013-01-09 15:28:00,
2013-01-09 08:33:00,28.0,17.5,25.69,North,0,0.0,0.0,64,0.00,,---,0.00,VWS V13.01,2013-01-09 15:33:00,
2013-01-09 08:38:00,28.9,16.8,25.69,North,0,0.0,0.0,60,0.00,,---,0.00,VWS V13.01,2013-01-09 15:38:00,
2013-01-09 08:43:00,30.7,17.7,25.69,North,0,0.0,0.0,58,0.00,,---,0.00,VWS V13.01,2013-01-09 15:43:00,
2013-01-09 08:48:00,33.1,18.7,25.69,North,0,0.0,0.0,55,0.00,,---,0.00,VWS V13.01,2013-01-09 15:48:00,
2013-01-09 08:53:00,35.2,18.9,25.69,North,0,0.0,0.0,51,0.00,,---,0.00,VWS V13.01,2013-01-09 15:53:00,
2013-01-09 08:58:00,37.2,17.9,25.69,North,0,0.0,0.0,45,0.00,,---,0.00,VWS V13.01,2013-01-09 15:58:00,
2013-01-09 09:03:00,37.9,17.5,25.69,North,0,0.0,0.0,43,0.00,,---,0.00,VWS V13.01,2013-01-09 16:03:00,
2013-01-09 09:08:00,39.2,16.9,25.69,North,0,0.0,0.0,40,0.00,,---,0.00,VWS V13.01,2013-01-09 16:08:00,
2013-01-09 09:13:00,40.6,17.6,25.69,North,0,0.0,0.0,39,0.00,,---,0.00,VWS V13.01,2013-01-09 16:13:00,
2013-01-09 09:18:00,42.3,18.5,25.69,North,0,0.0,0.0,38,0.00,,---,0.00,VWS V13.01,2013-01-09 16:18:00,
2013-01-09 09:23:00,43.7,19.1,25.66,North,0,0.0,0.0,37,0.00,,---,0.00,VWS V13.01,2013-01-09 16:23:00,
2013-01-09 09:28:00,44.4,19.1,25.66,North,0,0.0,0.0,36,0.00,,---,0.00,VWS V13.01,2013-01-09 16:28:00,
2013-01-09 09:33:00,45.1,19.1,25.66,North,0,0.0,0.0,35,0.00,,---,0.00,VWS V13.01,2013-01-09 16:33:00,
2013-01-09 09:38:00,45.5,18.8,25.66,North,0,0.0,0.0,34,0.00,,---,0.00,VWS V13.01,2013-01-09 16:38:00,
2013-01-09 09:43:00,46.0,18.6,25.66,North,0,0.0,0.0,33,0.00,,---,0.00,VWS V13.01,2013-01-09 16:43:00,
2013-01-09 09:48:00,46.8,19.2,25.66,North,0,0.0,0.0,33,0.00,,---,0.00,VWS V13.01,2013-01-09 16:48:00,
2013-01-09 09:53:00,46.9,18.6,25.69,North,0,0.0,0.0,32,0.00,,---,0.00,VWS V13.01,2013-01-09 16:53:00,
2013-01-09 09:58:00,47.1,18.8,25.69,North,0,0.0,0.0,32,0.00,,---,0.00,VWS V13.01,2013-01-09 16:58:00,
2013-01-09 10:03:00,47.5,19.1,25.69,North,0,0.0,0.0,32,0.00,,---,0.00,VWS V13.01,2013-01-09 17:03:00,
2013-01-09 10:08:00,48.2,19.0,25.69,North,0,0.0,0.0,31,0.00,,---,0.00,VWS V13.01,2013-01-09 17:08:00,
2013-01-09 10:13:00,48.7,19.5,25.69,North,0,0.0,0.0,31,0.00,,---,0.00,VWS V13.01,2013-01-09 17:13:00,
2013-01-09 10:18:00,49.3,19.2,25.69,North,0,0.0,0.0,30,0.00,,---,0.00,VWS V13.01,2013-01-09 17:18:00,
2013-01-09 10:23:00,49.5,19.3,25.66,North,0,0.0,0.0,30,0.00,,---,0.00,VWS V13.01,2013-01-09 17:23:00,
2013-01-09 10:28:00,49.6,19.5,25.66,North,0,0.0,0.0,30,0.00,,---,0.00,VWS V13.01,2013-01-09 17:28:00,
2013-01-09 10:33:00,50.0,19.0,25.66,North,0,0.0,0.0,29,0.00,,---,0.00,VWS V13.01,2013-01-09 17:33:00,
2013-01-09 10:38:00,50.5,19.5,25.66,North,0,0.0,0.0,29,0.00,,---,0.00,VWS V13.01,2013-01-09 17:38:00,
2013-01-09 10:43:00,51.1,20.0,25.66,North,0,0.0,0.0,29,0.00,,---,0.00,VWS V13.01,2013-01-09 17:43:00,
2013-01-09 10:48:00,51.3,20.1,25.66,North,0,0.0,0.0,29,0.00,,---,0.00,VWS V13.01,2013-01-09 17:48:00,
2013-01-09 10:53:00,51.6,20.4,25.66,North,0,0.0,0.0,29,0.00,,---,0.00,VWS V13.01,2013-01-09 17:53:00,
2013-01-09 10:58:00,51.8,20.6,25.66,North,0,0.0,0.0,29,0.00,,---,0.00,VWS V13.01,2013-01-09 17:58:00,
2013-01-09 11:02:00,51.8,19.8,25.66,North,0,0.0,0.0,28,0.00,,---,0.00,VWS V13.01,2013-01-09 18:02:00,
2013-01-09 11:07:00,52.0,19.9,25.66,North,0,0.0,0.0,28,0.00,,---,0.00,VWS V13.01,2013-01-09 18:07:00,
2013-01-09 11:12:00,52.3,20.2,25.66,North,0,0.0,0.0,28,0.00,,---,0.00,VWS V13.01,2013-01-09 18:12:00,
2013-01-09 11:17:00,52.5,20.4,25.66,North,0,0.0,0.0,28,0.00,,---,0.00,VWS V13.01,2013-01-09 18:17:00,
2013-01-09 11:22:00,52.9,19.8,25.66,North,0,0.0,0.0,27,0.00,,---,0.00,VWS V13.01,2013-01-09 18:22:00,
2013-01-09 11:27:00,53.2,21.0,25.66,North,0,0.0,0.0,28,0.00,,---,0.00,VWS V13.01,2013-01-09 18:27:00,
2013-01-09 11:32:00,53.2,21.0,25.66,North,0,0.0,0.0,28,0.00,,---,0.00,VWS V13.01,2013-01-09 18:32:00,
2013-01-09 11:37:00,53.4,21.1,25.66,North,0,0.0,0.0,28,0.00,,---,0.00,VWS V13.01,2013-01-09 18:37:00,
2013-01-09 11:41:00,53.4,21.1,25.66,North,0,0.0,0.0,28,0.00,,---,0.00,VWS V13.01,2013-01-09 18:41:00,
2013-01-09 11:42:00,53.4,21.1,25.66,North,0,0.0,0.0,28,0.00,,---,0.00,VWS V13.01,2013-01-09 18:42:00,
2013-01-09 11:44:00,53.4,20.3,25.66,North,0,0.0,0.0,27,0.00,,---,0.00,VWS V13.01,2013-01-09 18:44:00,
2013-01-09 11:48:00,53.2,20.1,25.66,North,0,0.0,0.0,27,0.00,,---,0.00,VWS V13.01,2013-01-09 18:48:00,
2013-01-09 11:49:00,53.2,20.1,25.63,North,0,0.0,0.0,27,0.00,,---,0.00,VWS V13.01,2013-01-09 18:49:00,
2013-01-09 11:54:00,53.2,20.1,25.63,North,0,0.0,0.0,27,0.00,,---,0.00,VWS V13.01,2013-01-09 18:54:00,
2013-01-09 11:59:00,53.2,20.1,25.63,North,0,0.0,0.0,27,0.00,,---,0.00,VWS V13.01,2013-01-09 18:59:00,
2013-01-09 12:04:00,53.8,20.6,25.63,North,0,0.0,0.0,27,0.00,,---,0.00,VWS V13.01,2013-01-09 19:04:00,
2013-01-09 12:08:00,54.0,20.8,25.63,North,0,0.0,0.0,27,0.00,,---,0.00,VWS V13.01,2013-01-09 19:08:00,
2013-01-09 12:13:00,53.6,20.5,25.63,North,0,0.0,0.0,27,0.00,,---,0.00,VWS V13.01,2013-01-09 19:13:00,
2013-01-09 12:18:00,52.7,19.7,25.63,North,0,0.0,0.0,27,0.00,,---,0.00,VWS V13.01,2013-01-09 19:18:00,
2013-01-09 12:23:00,52.2,19.2,25.63,North,0,0.0,0.0,27,0.00,,---,0.00,VWS V13.01,2013-01-09 19:23:00,
2013-01-09 12:28:00,52.3,19.4,25.63,North,0,0.0,0.0,27,0.00,,---,0.00,VWS V13.01,2013-01-09 19:28:00,
2013-01-09 12:33:00,52.0,19.9,25.63,North,0,0.0,0.0,28,0.00,,---,0.00,VWS V13.01,2013-01-09 19:33:00,
2013-01-09 12:38:00,52.0,19.9,25.63,North,0,0.0,0.0,28,0.00,,---,0.00,VWS V13.01,2013-01-09 19:38:00,
2013-01-09 12:43:00,51.8,19.8,25.63,North,0,0.0,0.0,28,0.00,,---,0.00,VWS V13.01,2013-01-09 19:43:00,
2013-01-09 12:48:00,51.6,20.4,25.63,North,0,0.0,0.0,29,0.00,,---,0.00,VWS V13.01,2013-01-09 19:48:00,
2013-01-09 12:53:00,51.4,20.3,25.63,North,0,0.0,0.0,29,0.00,,---,0.00,VWS V13.01,2013-01-09 19:53:00,
2013-01-09 12:58:00,51.1,20.0,25.63,North,0,0.0,0.0,29,0.00,,---,0.00,VWS V13.01,2013-01-09 19:58:00,
2013-01-09 13:03:00,50.9,19.8,25.63,North,0,0.0,0.0,29,0.00,,---,0.00,VWS V13.01,2013-01-09 20:03:00,
2013-01-09 13:08:00,51.3,20.1,25.63,North,0,0.0,0.0,29,0.00,,---,0.00,VWS V13.01,2013-01-09 20:08:00,
2013-01-09 13:13:00,51.3,20.1,25.63,North,0,0.0,0.0,29,0.00,,---,0.00,VWS V13.01,2013-01-09 20:13:00,
2013-01-09 13:18:00,51.1,20.0,25.63,North,0,0.0,0.0,29,0.00,,---,0.00,VWS V13.01,2013-01-09 20:18:00,
2013-01-09 13:23:00,50.9,19.8,25.63,North,0,0.0,0.0,29,0.00,,---,0.00,VWS V13.01,2013-01-09 20:23:00,
2013-01-09 13:28:00,50.9,19.8,25.63,North,0,0.0,0.0,29,0.00,,---,0.00,VWS V13.01,2013-01-09 20:28:00,
2013-01-09 13:34:00,50.9,19.8,25.63,North,0,0.0,0.0,29,0.00,,---,0.00,VWS V13.01,2013-01-09 20:34:00,
2013-01-09 13:39:00,50.7,19.6,25.63,North,0,0.0,0.0,29,0.00,,---,0.00,VWS V13.01,2013-01-09 20:39:00,
2013-01-09 13:44:00,51.1,20.0,25.63,North,0,0.0,0.0,29,0.00,,---,0.00,VWS V13.01,2013-01-09 20:44:00,
2013-01-09 13:48:00,51.1,20.0,25.63,North,0,0.0,0.0,29,0.00,,---,0.00,VWS V13.01,2013-01-09 20:48:00,
2013-01-09 13:54:00,51.4,20.3,25.63,North,0,0.0,0.0,29,0.00,,---,0.00,VWS V13.01,2013-01-09 20:54:00,
2013-01-09 13:59:00,51.1,20.0,25.63,North,0,0.0,0.0,29,0.00,,---,0.00,VWS V13.01,2013-01-09 20:59:00,
2013-01-09 14:04:00,51.1,20.0,25.63,North,0,0.0,0.0,29,0.00,,---,0.00,VWS V13.01,2013-01-09 21:04:00,
2013-01-09 14:09:00,51.3,20.1,25.63,North,0,0.0,0.0,29,0.00,,---,0.00,VWS V13.01,2013-01-09 21:09:00,
2013-01-09 14:14:00,51.4,20.3,25.63,North,0,0.0,0.0,29,0.00,,---,0.00,VWS V13.01,2013-01-09 21:14:00,
2013-01-09 14:19:00,51.1,20.0,25.60,North,0,0.0,0.0,29,0.00,,---,0.00,VWS V13.01,2013-01-09 21:19:00,
2013-01-09 14:24:00,51.1,20.0,25.60,North,0,0.0,0.0,29,0.00,,---,0.00,VWS V13.01,2013-01-09 21:24:00,
2013-01-09 14:29:00,51.1,20.0,25.60,North,0,0.0,0.0,29,0.00,,---,0.00,VWS V13.01,2013-01-09 21:29:00,
2013-01-09 14:34:00,50.7,19.6,25.60,North,0,0.0,0.0,29,0.00,,---,0.00,VWS V13.01,2013-01-09 21:34:00,
2013-01-09 14:38:00,50.5,19.5,25.60,North,0,0.0,0.0,29,0.00,,---,0.00,VWS V13.01,2013-01-09 21:38:00,
2013-01-09 14:43:00,50.5,19.5,25.60,North,0,0.0,0.0,29,0.00,,---,0.00,VWS V13.01,2013-01-09 21:43:00,
2013-01-09 14:48:00,50.2,19.2,25.60,North,0,0.0,0.0,29,0.00,,---,0.00,VWS V13.01,2013-01-09 21:48:00,
2013-01-09 14:53:00,50.0,19.0,25.60,North,0,0.0,0.0,29,0.00,,---,0.00,VWS V13.01,2013-01-09 21:53:00,
2013-01-09 14:58:00,50.0,18.2,25.60,North,0,0.0,0.0,28,0.00,,---,0.00,VWS V13.01,2013-01-09 21:58:00,
2013-01-09 15:03:00,50.0,18.2,25.60,North,0,0.0,0.0,28,0.00,,---,0.00,VWS V13.01,2013-01-09 22:03:00,
2013-01-09 15:08:00,50.2,19.2,25.60,North,0,0.0,0.0,29,0.00,,---,0.00,VWS V13.01,2013-01-09 22:08:00,
2013-01-09 15:13:00,49.8,19.6,25.60,North,0,0.0,0.0,30,0.00,,---,0.00,VWS V13.01,2013-01-09 22:13:00,
2013-01-09 15:18:00,48.9,19.6,25.63,North,0,0.0,0.0,31,0.00,,---,0.00,VWS V13.01,2013-01-09 22:18:00,
2013-01-09 15:23:00,48.4,18.4,25.63,North,0,0.0,0.0,30,0.00,,---,0.00,VWS V13.01,2013-01-09 22:23:00,
2013-01-09 15:28:00,48.7,17.9,25.63,North,0,0.0,0.0,29,0.00,,---,0.00,VWS V13.01,2013-01-09 22:28:00,
2013-01-09 15:33:00,49.3,18.4,25.63,North,0,0.0,0.0,29,0.00,,---,0.00,VWS V13.01,2013-01-09 22:33:00,
2013-01-09 15:38:00,48.9,18.1,25.63,North,0,0.0,0.0,29,0.00,,---,0.00,VWS V13.01,2013-01-09 22:38:00,
2013-01-09 15:43:00,48.9,18.1,25.63,North,0,0.0,0.0,29,0.00,,---,0.00,VWS V13.01,2013-01-09 22:43:00,
2013-01-09 15:48:00,49.5,18.5,25.60,North,0,0.0,0.0,29,0.00,,---,0.00,VWS V13.01,2013-01-09 22:48:00,
2013-01-09 15:53:00,48.6,17.8,25.60,North,0,0.0,0.0,29,0.00,,---,0.00,VWS V13.01,2013-01-09 22:53:00,
2013-01-09 15:58:00,48.6,17.8,25.60,North,0,0.0,0.0,29,0.00,,---,0.00,VWS V13.01,2013-01-09 22:58:00,
2013-01-09 16:03:00,47.7,17.0,25.60,North,0,0.0,0.0,29,0.00,,---,0.00,VWS V13.01,2013-01-09 23:03:00,
2013-01-09 16:08:00,46.4,16.7,25.60,North,0,0.0,0.0,30,0.00,,---,0.00,VWS V13.01,2013-01-09 23:08:00,
2013-01-09 16:13:00,46.0,16.4,25.60,North,0,0.0,0.0,30,0.00,,---,0.00,VWS V13.01,2013-01-09 23:13:00,
2013-01-09 16:18:00,44.6,15.9,25.60,North,0,0.0,0.0,31,0.00,,---,0.00,VWS V13.01,2013-01-09 23:18:00,
2013-01-09 16:23:00,43.5,15.6,25.60,North,0,0.0,0.0,32,0.00,,---,0.00,VWS V13.01,2013-01-09 23:23:00,
2013-01-09 16:28:00,42.4,15.4,25.60,North,0,0.0,0.0,33,0.00,,---,0.00,VWS V13.01,2013-01-09 23:28:00,
2013-01-09 16:33:00,42.4,16.1,25.60,North,0,0.0,0.0,34,0.00,,---,0.00,VWS V13.01,2013-01-09 23:33:00,
2013-01-09 16:38:00,42.4,16.1,25.60,North,0,0.0,0.0,34,0.00,,---,0.00,VWS V13.01,2013-01-09 23:38:00,
2013-01-09 16:43:00,42.8,16.4,25.60,North,0,0.0,0.0,34,0.00,,---,0.00,VWS V13.01,2013-01-09 23:43:00,
2013-01-09 16:48:00,42.4,16.7,25.60,North,0,0.0,0.0,35,0.00,,---,0.00,VWS V13.01,2013-01-09 23:48:00,
2013-01-09 16:53:00,41.9,16.3,25.60,North,0,0.0,0.0,35,0.00,,---,0.00,VWS V13.01,2013-01-09 23:53:00,
2013-01-09 16:58:00,40.6,15.8,25.60,North,0,0.0,0.0,36,0.00,,---,0.00,VWS V13.01,2013-01-09 23:58:00,
2013-01-09 17:03:00,39.6,15.4,25.60,North,0,0.0,0.0,37,0.00,,---,0.00,VWS V13.01,2013-01-10 00:03:00,
2013-01-09 17:08:00,39.0,15.6,25.60,North,0,0.0,0.0,38,0.00,,---,0.00,VWS V13.01,2013-01-10 00:08:00,
2013-01-09 17:13:00,38.5,15.7,25.60,North,0,0.0,0.0,39,0.00,,---,0.00,VWS V13.01,2013-01-10 00:13:00,
2013-01-09 17:18:00,38.5,16.3,25.60,North,0,0.0,0.0,40,0.00,,---,0.00,VWS V13.01,2013-01-10 00:18:00,
2013-01-09 17:23:00,38.1,15.9,25.60,North,0,0.0,0.0,40,0.00,,---,0.00,VWS V13.01,2013-01-10 00:23:00,
2013-01-09 17:28:00,37.9,15.8,25.60,North,0,0.0,0.0,40,0.00,,---,0.00,VWS V13.01,2013-01-10 00:28:00,
2013-01-09 17:33:00,37.0,15.5,25.57,North,0,0.0,0.0,41,0.00,,---,0.00,VWS V13.01,2013-01-10 00:33:00,
2013-01-09 17:38:00,36.5,15.6,25.57,North,0,0.0,0.0,42,0.00,,---,0.00,VWS V13.01,2013-01-10 00:38:00,
2013-01-09 17:43:00,36.0,15.6,25.57,North,0,0.0,0.0,43,0.00,,---,0.00,VWS V13.01,2013-01-10 00:43:00,
2013-01-09 17:48:00,35.1,15.4,25.57,North,0,0.0,0.0,44,0.00,,---,0.00,VWS V13.01,2013-01-10 00:48:00,
2013-01-09 17:53:00,34.2,15.1,25.57,North,0,0.0,0.0,45,0.00,,---,0.00,VWS V13.01,2013-01-10 00:53:00,
2013-01-09 17:58:00,33.4,15.4,25.57,North,0,0.0,0.0,47,0.00,,---,0.00,VWS V13.01,2013-01-10 00:58:00,
2013-01-09 18:03:00,33.1,16.5,25.57,North,0,0.0,0.0,50,0.00,,---,0.00,VWS V13.01,2013-01-10 01:03:00,
2013-01-09 18:08:00,32.5,16.0,25.57,North,0,0.0,0.0,50,0.00,,---,0.00,VWS V13.01,2013-01-10 01:08:00,
2013-01-09 18:13:00,32.2,16.1,25.57,North,0,0.0,0.0,51,0.00,,---,0.00,VWS V13.01,2013-01-10 01:13:00,
2013-01-09 18:18:00,31.6,15.6,25.57,North,0,0.0,0.0,51,0.00,,---,0.00,VWS V13.01,2013-01-10 01:18:00,
2013-01-09 18:23:00,31.3,16.6,25.57,North,0,0.0,0.0,54,0.00,,---,0.00,VWS V13.01,2013-01-10 01:23:00,
2013-01-09 18:28:00,31.1,16.4,25.57,North,0,0.0,0.0,54,0.00,,---,0.00,VWS V13.01,2013-01-10 01:28:00,
2013-01-09 18:33:00,30.7,15.6,25.54,North,0,0.0,0.0,53,0.00,,---,0.00,VWS V13.01,2013-01-10 01:33:00,
2013-01-09 18:38:00,30.7,16.1,25.54,North,0,0.0,0.0,54,0.00,,---,0.00,VWS V13.01,2013-01-10 01:38:00,
2013-01-09 18:43:00,30.6,15.9,25.54,North,0,0.0,0.0,54,0.00,,---,0.00,VWS V13.01,2013-01-10 01:43:00,
2013-01-09 18:48:00,31.1,16.4,25.54,North,0,0.0,0.0,54,0.00,,---,0.00,VWS V13.01,2013-01-10 01:48:00,
2013-01-09 18:53:00,32.7,17.0,25.54,North,0,0.0,0.0,52,0.00,,---,0.00,VWS V13.01,2013-01-10 01:53:00,
2013-01-09 18:58:00,32.2,16.1,25.54,North,0,0.0,0.0,51,0.00,,---,0.00,VWS V13.01,2013-01-10 01:58:00,
2013-01-09 19:03:00,32.2,16.1,25.54,North,0,0.0,0.0,51,0.00,,---,0.00,VWS V13.01,2013-01-10 02:03:00,
2013-01-09 19:08:00,33.4,16.4,25.54,North,0,0.0,0.0,49,0.00,,---,0.00,VWS V13.01,2013-01-10 02:08:00,
2013-01-09 19:13:00,34.0,15.4,25.54,North,0,0.0,0.0,46,0.00,,---,0.00,VWS V13.01,2013-01-10 02:13:00,
2013-01-09 19:18:00,33.6,15.6,25.51,North,0,0.0,0.0,47,0.00,,---,0.00,VWS V13.01,2013-01-10 02:18:00,
2013-01-09 19:23:00,34.0,15.4,25.51,North,0,0.0,0.0,46,0.00,,---,0.00,VWS V13.01,2013-01-10 02:23:00,
2013-01-09 19:28:00,34.9,15.7,25.51,North,0,0.0,0.0,45,0.00,,---,0.00,VWS V13.01,2013-01-10 02:28:00,
2013-01-09 19:33:00,38.1,16.5,25.51,North,0,0.0,0.0,41,0.00,,---,0.00,VWS V13.01,2013-01-10 02:33:00,
2013-01-09 19:38:00,42.1,18.3,25.51,North,0,0.0,0.0,38,0.00,,---,0.00,VWS V13.01,2013-01-10 02:38:00,
2013-01-09 19:43:00,44.8,18.1,25.51,North,0,0.0,0.0,34,0.00,,---,0.00,VWS V13.01,2013-01-10 02:43:00,
2013-01-09 19:48:00,45.5,17.4,25.51,North,0,0.0,0.0,32,0.00,,---,0.00,VWS V13.01,2013-01-10 02:48:00,
2013-01-09 19:53:00,46.8,17.7,25.51,North,0,0.0,0.0,31,0.00,,---,0.00,VWS V13.01,2013-01-10 02:53:00,
2013-01-09 19:58:00,47.3,17.5,25.51,North,0,0.0,0.0,30,0.00,,---,0.00,VWS V13.01,2013-01-10 02:58:00,
2013-01-09 20:03:00,47.7,17.0,25.48,North,0,0.0,0.0,29,0.00,,---,0.00,VWS V13.01,2013-01-10 03:03:00,
2013-01-09 20:08:00,47.5,16.8,25.48,North,0,0.0,0.0,29,0.00,,---,0.00,VWS V13.01,2013-01-10 03:08:00,
2013-01-09 20:13:00,47.8,17.1,25.48,North,0,0.0,0.0,29,0.00,,---,0.00,VWS V13.01,2013-01-10 03:13:00,
2013-01-09 20:18:00,47.8,17.1,25.48,North,0,0.0,0.0,29,0.00,,---,0.00,VWS V13.01,2013-01-10 03:18:00,
2013-01-09 20:23:00,48.2,16.6,25.48,North,0,0.0,0.0,28,0.00,,---,0.00,VWS V13.01,2013-01-10 03:23:00,
2013-01-09 20:28:00,47.8,16.3,25.48,North,0,0.0,0.0,28,0.00,,---,0.00,VWS V13.01,2013-01-10 03:28:00,
2013-01-09 20:33:00,47.5,16.0,25.48,North,0,0.0,0.0,28,0.00,,---,0.00,VWS V13.01,2013-01-10 03:33:00,
2013-01-09 20:38:00,48.0,16.5,25.48,North,0,0.0,0.0,28,0.00,,---,0.00,VWS V13.01,2013-01-10 03:38:00,
2013-01-09 20:43:00,48.2,15.8,25.48,North,0,0.0,0.0,27,0.00,,---,0.00,VWS V13.01,2013-01-10 03:43:00,
2013-01-09 20:48:00,48.2,15.8,25.48,North,0,0.0,0.0,27,0.00,,---,0.00,VWS V13.01,2013-01-10 03:48:00,
2013-01-09 20:53:00,48.0,16.5,25.48,North,0,0.0,0.0,28,0.00,,---,0.00,VWS V13.01,2013-01-10 03:53:00,
2013-01-09 20:58:00,47.5,16.0,25.48,North,0,0.0,0.0,28,0.00,,---,0.00,VWS V13.01,2013-01-10 03:58:00,
2013-01-09 21:03:00,47.3,15.9,25.48,North,0,0.0,0.0,28,0.00,,---,0.00,VWS V13.01,2013-01-10 04:03:00,
2013-01-09 21:08:00,47.3,15.9,25.48,North,0,0.0,0.0,28,0.00,,---,0.00,VWS V13.01,2013-01-10 04:08:00,
2013-01-09 21:13:00,47.7,15.3,25.48,North,0,0.0,0.0,27,0.00,,---,0.00,VWS V13.01,2013-01-10 04:13:00,
2013-01-09 21:18:00,47.8,15.5,25.45,North,0,0.0,0.0,27,0.00,,---,0.00,VWS V13.01,2013-01-10 04:18:00,
2013-01-09 21:23:00,48.0,15.6,25.45,North,0,0.0,0.0,27,0.00,,---,0.00,VWS V13.01,2013-01-10 04:23:00,
2013-01-09 21:28:00,48.0,15.6,25.45,North,0,0.0,0.0,27,0.00,,---,0.00,VWS V13.01,2013-01-10 04:28:00,
2013-01-09 21:33:00,47.8,15.5,25.45,North,0,0.0,0.0,27,0.00,,---,0.00,VWS V13.01,2013-01-10 04:33:00,
2013-01-09 21:38:00,48.2,15.8,25.45,North,0,0.0,0.0,27,0.00,,---,0.00,VWS V13.01,2013-01-10 04:38:00,
2013-01-09 21:43:00,48.2,15.8,25.45,North,0,0.0,0.0,27,0.00,,---,0.00,VWS V13.01,2013-01-10 04:43:00,
2013-01-09 21:48:00,48.0,15.6,25.45,North,0,0.0,0.0,27,0.00,,---,0.00,VWS V13.01,2013-01-10 04:48:00,
2013-01-09 21:53:00,48.4,16.0,25.45,North,0,0.0,0.0,27,0.00,,---,0.00,VWS V13.01,2013-01-10 04:53:00,
2013-01-09 21:58:00,48.9,16.4,25.45,North,0,0.0,0.0,27,0.00,,---,0.00,VWS V13.01,2013-01-10 04:58:00,
2013-01-09 22:00:00,48.9,16.4,25.45,North,0,0.0,0.0,27,0.00,,---,0.00,VWS V13.01,2013-01-10 05:00:00,
2013-01-09 22:01:00,48.9,16.4,25.45,North,0,0.0,0.0,27,0.00,,---,0.00,VWS V13.01,2013-01-10 05:01:00,
2013-01-09 22:06:00,48.7,16.3,25.45,North,0,0.0,0.0,27,0.00,,---,0.00,VWS V13.01,2013-01-10 05:06:00,
2013-01-09 22:11:00,49.6,16.2,25.45,North,0,0.0,0.0,26,0.00,,---,0.00,VWS V13.01,2013-01-10 05:11:00,
2013-01-09 22:16:00,49.6,16.2,25.45,North,0,0.0,0.0,26,0.00,,---,0.00,VWS V13.01,2013-01-10 05:16:00,
2013-01-09 22:21:00,49.3,15.9,25.45,North,0,0.0,0.0,26,0.00,,---,0.00,VWS V13.01,2013-01-10 05:21:00,
2013-01-09 22:26:00,49.5,16.0,25.45,North,0,0.0,0.0,26,0.00,,---,0.00,VWS V13.01,2013-01-10 05:26:00,
2013-01-09 22:31:00,49.3,15.9,25.45,North,0,0.0,0.0,26,0.00,,---,0.00,VWS V13.01,2013-01-10 05:31:00,
2013-01-09 22:36:00,49.5,16.0,25.45,North,0,0.0,0.0,26,0.00,,---,0.00,VWS V13.01,2013-01-10 05:36:00,
2013-01-09 22:41:00,48.9,15.6,25.45,North,0,0.0,0.0,26,0.00,,---,0.00,VWS V13.01,2013-01-10 05:41:00,
2013-01-09 22:46:00,48.7,15.4,25.45,North,0,0.0,0.0,26,0.00,,---,0.00,VWS V13.01,2013-01-10 05:46:00,
2013-01-09 22:51:00,49.1,15.7,25.45,North,0,0.0,0.0,26,0.00,,---,0.00,VWS V13.01,2013-01-10 05:51:00,
2013-01-09 22:56:00,49.5,16.0,25.45,North,0,0.0,0.0,26,0.00,,---,0.00,VWS V13.01,2013-01-10 05:56:00,
2013-01-09 23:01:00,48.9,16.4,25.45,North,0,0.0,0.0,27,0.00,,---,0.00,VWS V13.01,2013-01-10 06:01:00,
2013-01-09 23:06:00,48.7,16.3,25.45,North,0,0.0,0.0,27,0.00,,---,0.00,VWS V13.01,2013-01-10 06:06:00,
2013-01-09 23:11:00,48.7,16.3,25.45,North,0,0.0,0.0,27,0.00,,---,0.00,VWS V13.01,2013-01-10 06:11:00,
2013-01-09 23:16:00,48.7,16.3,25.45,North,0,0.0,0.0,27,0.00,,---,0.00,VWS V13.01,2013-01-10 06:16:00,
2013-01-09 23:21:00,48.2,15.8,25.45,North,0,0.0,0.0,27,0.00,,---,0.00,VWS V13.01,2013-01-10 06:21:00,
2013-01-09 23:26:00,47.5,15.2,25.45,North,0,0.0,0.0,27,0.00,,---,0.00,VWS V13.01,2013-01-10 06:26:00,
2013-01-09 23:31:00,48.2,15.8,25.45,North,0,0.0,0.0,27,0.00,,---,0.00,VWS V13.01,2013-01-10 06:31:00,
2013-01-09 23:36:00,48.4,16.0,25.43,North,0,0.0,0.0,27,0.00,,---,0.00,VWS V13.01,2013-01-10 06:36:00,
2013-01-09 23:41:00,48.7,15.4,25.43,North,0,0.0,0.0,26,0.00,,---,0.00,VWS V13.01,2013-01-10 06:41:00,
2013-01-09 23:46:00,49.3,15.9,25.43,North,0,0.0,0.0,26,0.00,,---,0.00,VWS V13.01,2013-01-10 06:46:00,
2013-01-09 23:51:00,48.9,15.6,25.43,North,0,0.0,0.0,26,0.00,,---,0.00,VWS V13.01,2013-01-10 06:51:00,
2013-01-09 23:56:00,49.1,15.7,25.43,North,0,0.0,0.0,26,0.00,,---,0.00,VWS V13.01,2013-01-10 06:56:00,